Flag for Germany Weather for the Past 2 Weeks in Georgsmarienhütte, Lower Saxony, Germany

Now
48 °F

Partly sunny.


Feels Like: 44 °F
Forecast: 42 / 49 °F
Wind: 10 mph from South

Location: Muenster / Osnabrueck

Current Time: Feb 6, 2016 at 10:35:27 AM

Latest Report: Feb 6, 2016 at 10:20 AM


Visibility: N/A

Pressure: 29.86 "Hg

Humidity: 82%

Dew point: 43 °F

Location of GeorgsmarienhütteLocation

Historic Weather in Georgsmarienhütte — Graph

°F

Georgsmarienhütte Temperature Yesterday

Maximum temperature yesterday: 50 °F (at 2:50 PM)
Minimum temperature yesterday: 39 °F (at 12:20 AM)
Average temperature yesterday: 44 °F

High & Low Weather Summary for the Past Weeks

 TemperatureHumidityPressure
High55 °F (Jan 25, 12:20 PM)100% (Jan 22, 10:50 PM)30.54 "Hg (Jan 22, 10:50 PM)
Low23 °F (Jan 22, 9:20 AM)53% (Jan 28, 1:50 PM)29.65 "Hg (Jan 30, 1:20 PM)
Average45 °F85%30.07 "Hg
* Reported Jan 22 9:20 AM — Feb 6 9:20 AM, Georgsmarienhütte, Weather by CustomWeather, © 2016

Note: Actual official high and low records may vary slightly from our data, if they occured in-between our weather recording intervals... More about our weather records

Advertising

Georgsmarienhütte Weather History for the Previous 24 Hours

 ConditionsComfort  
Time TempWeatherWind HumidityBarometerVisibility
9:20 AM
Sat, Feb 6
46 °FPartly sunny.9 mph82%29.89 "HgN/A
8:50 AM46 °FPartly sunny.12 mph82%29.89 "HgN/A
8:20 AM46 °FPartly sunny.8 mph82%29.89 "HgN/A
7:50 AM45 °FPassing clouds.7 mph93%29.89 "HgN/A
7:20 AM45 °FPassing clouds.5 mph93%29.89 "HgN/A
6:50 AM46 °FPassing clouds.6 mph87%29.92 "HgN/A
6:20 AM46 °FPassing clouds.6 mph87%29.92 "HgN/A
5:50 AM46 °FPassing clouds.7 mph87%29.92 "HgN/A
5:20 AM48 °FPassing clouds.8 mph82%29.92 "HgN/A
4:50 AM48 °FPassing clouds.8 mph82%29.95 "HgN/A
4:20 AM48 °FPassing clouds.8 mph87%29.95 "HgN/A
3:50 AM48 °FPassing clouds.7 mph87%29.98 "HgN/A
3:20 AM50 °FPassing clouds.9 mph76%29.98 "HgN/A
2:50 AM50 °FPartly cloudy.9 mph82%29.98 "HgN/A
2:20 AM50 °FPartly cloudy.9 mph82%30.01 "HgN/A
1:20 AM50 °FPassing clouds.9 mph82%30.01 "HgN/A
12:50 AM50 °FPassing clouds.9 mph82%30.04 "HgN/A
12:20 AM50 °FPassing clouds.9 mph82%30.04 "HgN/A
11:50 PM
Fri, Feb 5
48 °FPassing clouds.8 mph94%30.04 "HgN/A
11:20 PM48 °FPassing clouds.8 mph94%30.07 "HgN/A
10:50 PM48 °FPartly cloudy.7 mph94%30.07 "Hg5 mi
10:20 PM48 °FPartly cloudy.10 mph94%30.07 "Hg6 mi
9:50 PM48 °FPassing clouds.9 mph94%30.07 "Hg4 mi
9:20 PM48 °FPartly cloudy.10 mph94%30.07 "Hg4 mi
8:50 PM48 °FPartly cloudy.8 mph94%30.09 "Hg4 mi
8:20 PM48 °FPassing clouds.8 mph94%30.09 "HgN/A
7:50 PM48 °FPassing clouds.8 mph94%30.09 "HgN/A
7:20 PM50 °FPassing clouds.9 mph88%30.09 "HgN/A
6:50 PM50 °FPassing clouds.10 mph88%30.12 "HgN/A
6:20 PM50 °FPassing clouds.10 mph88%30.12 "HgN/A
5:50 PM48 °FPassing clouds.9 mph94%30.12 "HgN/A
5:20 PM50 °FPartly sunny.12 mph88%30.12 "HgN/A
4:50 PM50 °FBroken clouds.9 mph88%30.12 "HgN/A
4:20 PM48 °FPartly sunny.7 mph94%30.12 "HgN/A
3:50 PM50 °FPartly sunny.9 mph88%30.12 "HgN/A
3:20 PM50 °FPartly sunny.9 mph88%30.12 "HgN/A
2:50 PM50 °FBroken clouds.9 mph88%30.12 "HgN/A
2:20 PM48 °FPartly sunny.8 mph94%30.15 "HgN/A
1:50 PM46 °FPartly sunny.9 mph100%30.15 "HgN/A
1:20 PM46 °FPartly sunny.10 mph93%30.15 "HgN/A
12:50 PM46 °FPartly sunny.10 mph93%30.15 "Hg5 mi
12:20 PM45 °FFog.10 mph100%30.18 "Hg1 mi
11:50 AM43 °FFog.8 mph100%30.18 "Hg1 mi
11:20 AM43 °FDrizzle. Fog.9 mph93%30.18 "Hg2 mi
10:50 AM43 °FDrizzle. Fog.9 mph93%30.18 "Hg2 mi
10:20 AM41 °FDrizzle. Partly sunny.8 mph100%30.18 "Hg3 mi
Weather by CustomWeather, © 2016

See weather overviewHow to use our weather pages